| time (UTC) | temp F | wind direction | speed knots | gust knots | rain 1hr in | rain 24hr in | rain mn in | humidity % | barometer mb |
| 20260506004554 | 50 | 20 | 2.6 | 11.3 | 0.00 | 0.00 | 0.00 | 80 | 1011.6 |
| 20260506003050 | 51 | 342 | 2.6 | 11.3 | 0.00 | 0.00 | 0.00 | 80 | 1011.3 |
| 20260506001547 | 51 | 18 | 4.3 | 13.9 | 0.00 | 0.00 | 0.00 | 79 | 1011.2 |
| 20260506000047 | 51 | 65 | 3.5 | 13.0 | 0.00 | 0.00 | 0.00 | 78 | 1011.2 |
| 20260505234542 | 51 | 18 | 5.2 | 12.2 | 0.00 | 0.00 | 0.00 | 77 | 1010.8 |
| 20260505233041 | 52 | 319 | 3.5 | 11.3 | 0.00 | 0.00 | 0.00 | 76 | 1011.0 |
| 20260505231540 | 52 | 54 | 4.3 | 12.2 | 0.00 | 0.00 | 0.00 | 75 | 1011.3 |
| 20260505230050 | 52 | 327 | 3.5 | 12.2 | 0.00 | 0.00 | 0.00 | 75 | 1010.7 |
| 20260505224533 | 53 | 218 | 5.2 | 15.6 | 0.00 | 0.00 | 0.00 | 74 | 1010.7 |
| 20260505223030 | 53 | 65 | 2.6 | 11.3 | 0.00 | 0.00 | 0.00 | 74 | 1010.5 |
| 20260505221533 | 53 | 9 | 6.1 | 14.8 | 0.00 | 0.00 | 0.00 | 74 | 1010.2 |
| 20260505220026 | 54 | 32 | 4.3 | 13.9 | 0.00 | 0.00 | 0.00 | 74 | 1010.0 |
| 20260505214527 | 54 | 12 | 6.1 | 13.0 | 0.00 | 0.00 | 0.00 | 73 | 1009.9 |
| 20260505213028 | 54 | 34 | 5.2 | 13.9 | 0.00 | 0.00 | 0.00 | 73 | 1009.3 |
| 20260505211523 | 54 | 58 | 8.7 | 14.8 | 0.00 | 0.00 | 0.00 | 73 | 1009.7 |
| 20260505210022 | 54 | 6 | 7.8 | 13.0 | 0.00 | 0.00 | 0.00 | 74 | 1009.3 |
| 20260505204522 | 54 | 21 | 5.2 | 13.9 | 0.00 | 0.00 | 0.00 | 75 | 1009.5 |
| 20260505203022 | 54 | 328 | 5.2 | 13.0 | 0.00 | 0.00 | 0.00 | 75 | 1009.9 |
| 20260505201515 | 54 | 60 | 6.1 | 13.0 | 0.00 | 0.00 | 0.00 | 75 | 1009.1 |
| 20260505200027 | 55 | 43 | 4.3 | 13.0 | 0.00 | 0.00 | 0.00 | 76 | 1008.9 |
| 20260505194515 | 54 | 32 | 5.2 | 12.2 | 0.00 | 0.00 | 0.00 | 78 | 1008.9 |
| 20260505193012 | 54 | 57 | 5.2 | 16.5 | 0.00 | 0.00 | 0.00 | 79 | 1008.9 |
| 20260505191510 | 54 | 32 | 5.2 | 11.3 | 0.00 | 0.00 | 0.00 | 80 | 1008.8 |
| 20260505190008 | 55 | 25 | 4.3 | 13.9 | 0.00 | 0.00 | 0.00 | 81 | 1008.6 |
| 20260505184503 | 55 | 58 | 5.2 | 15.6 | 0.00 | 0.00 | 0.00 | 80 | 1008.5 |
| 20260505183107 | 56 | 8 | 4.3 | 13.9 | 0.00 | 0.00 | 0.00 | 79 | 1008.4 |
| 20260505181556 | 57 | 44 | 7.0 | 13.9 | 0.00 | 0.00 | 0.00 | 78 | 1008.2 |
| 20260505180053 | 57 | 54 | 4.3 | 12.2 | 0.00 | 0.00 | 0.00 | 79 | 1007.9 |
| 20260505174552 | 56 | 46 | 5.2 | 12.2 | 0.00 | 0.00 | 0.00 | 80 | 1007.7 |
| 20260505173051 | 57 | 19 | 4.3 | 9.6 | 0.00 | 0.00 | 0.00 | 80 | 1007.5 |
| 20260505171548 | 56 | 18 | 7.0 | 14.8 | 0.00 | 0.00 | 0.00 | 81 | 1007.2 |
| 20260505170044 | 56 | 52 | 6.1 | 12.2 | 0.00 | 0.00 | 0.00 | 82 | 1006.9 |
| 20260505164556 | 57 | 13 | 7.8 | 13.0 | 0.00 | 0.00 | 0.00 | 82 | 1006.7 |
| 20260505163043 | 57 | 56 | 7.0 | 13.0 | 0.00 | 0.00 | 0.00 | 83 | 1006.3 |
| 20260505161535 | 57 | 41 | 7.8 | 15.6 | 0.00 | 0.00 | 0.00 | 82 | 1005.7 |
| 20260505153023 | 60 | 20 | 6.1 | 16.5 | 0.00 | 0.00 | 0.00 | 82 | 1004.3 |
| 20260505151519 | 62 | 53 | 7.0 | 14.8 | 0.00 | 0.00 | 0.00 | 82 | 1003.8 |
| 20260505124556 | 68 | 356 | 0.0 | 0.0 | 0.00 | 0.00 | 0.00 | 83 | 1001.4 |
| 20260505123104 | 68 | 356 | 0.0 | 0.0 | 0.00 | 0.00 | 0.00 | 81 | 1001.3 |
| 20260505121552 | 68 | 356 | 0.0 | 0.9 | 0.00 | 0.00 | 0.00 | 80 | 1001.0 |
| 20260505120048 | 69 | 356 | 0.0 | 0.9 | 0.00 | 0.00 | 0.00 | 79 | 1000.8 |
| 20260505114546 | 70 | 29 | 0.0 | 2.6 | 0.00 | 0.00 | 0.00 | 76 | 1000.6 |
| 20260505113042 | 70 | 208 | 0.0 | 1.7 | 0.00 | 0.00 | 0.00 | 74 | 1000.1 |
| 20260505111549 | 72 | 238 | 0.9 | 9.6 | 0.00 | 0.00 | 0.00 | 73 | 999.2 |
| 20260505101531 | 72 | 226 | 6.1 | 13.0 | 0.00 | 0.00 | 0.00 | 72 | 998.4 |
| 20260505100040 | 73 | 200 | 5.2 | 12.2 | 0.00 | 0.00 | 0.00 | 72 | 998.5 |
| 20260505094525 | 73 | 207 | 5.2 | 11.3 | 0.00 | 0.00 | 0.00 | 72 | 998.4 |
| 20260505093025 | 73 | 231 | 5.2 | 10.4 | 0.00 | 0.00 | 0.00 | 72 | 998.3 |
| 20260505091523 | 73 | 161 | 5.2 | 12.2 | 0.00 | 0.00 | 0.00 | 72 | 998.3 |
| 20260505090031 | 73 | 250 | 6.1 | 13.0 | 0.00 | 0.00 | 0.00 | 72 | 998.6 |
| 20260505084524 | 73 | 189 | 5.2 | 13.9 | 0.00 | 0.00 | 0.00 | 72 | 998.7 |
| 20260505083031 | 73 | 210 | 5.2 | 12.2 | 0.00 | 0.00 | 0.00 | 72 | 998.8 |
| 20260505081517 | 73 | 181 | 6.1 | 14.8 | 0.00 | 0.00 | 0.00 | 72 | 999.0 |
| 20260505080020 | 73 | 212 | 4.3 | 13.0 | 0.00 | 0.00 | 0.00 | 72 | 999.1 |
| 20260505074511 | 73 | 153 | 7.0 | 13.9 | 0.00 | 0.00 | 0.00 | 73 | 999.2 |
| 20260505073009 | 73 | 197 | 5.2 | 12.2 | 0.00 | 0.00 | 0.00 | 72 | 999.3 |
| 20260505071508 | 73 | 240 | 6.1 | 13.9 | 0.00 | 0.00 | 0.00 | 72 | 999.5 |
| 20260505070003 | 73 | 191 | 5.2 | 13.0 | 0.00 | 0.00 | 0.00 | 72 | 999.6 |
| 20260505064501 | 73 | 177 | 4.3 | 12.2 | 0.00 | 0.00 | 0.00 | 72 | 999.9 |
| 20260505063101 | 73 | 248 | 6.1 | 13.0 | 0.00 | 0.00 | 0.00 | 71 | 999.9 |
| 20260505061624 | 73 | 164 | 7.0 | 13.0 | 0.00 | 0.00 | 0.00 | 72 | 1000.0 |
| 20260505060055 | 73 | 231 | 6.1 | 10.4 | 0.00 | 0.00 | 0.00 | 72 | 1000.2 |
| 20260505054603 | 73 | 227 | 5.2 | 14.8 | 0.00 | 0.00 | 0.00 | 71 | 1000.3 |
| 20260505053048 | 73 | 219 | 6.1 | 13.0 | 0.00 | 0.00 | 0.00 | 71 | 1000.5 |
| 20260505051547 | 73 | 162 | 7.0 | 14.8 | 0.00 | 0.00 | 0.00 | 71 | 1000.7 |
| 20260505041542 | 74 | 201 | 6.1 | 12.2 | 0.00 | 0.00 | 0.00 | 70 | 1001.1 |
| 20260505040041 | 74 | 179 | 7.8 | 13.9 | 0.00 | 0.00 | 0.00 | 69 | 1001.3 |
| 20260505034640 | 75 | 191 | 5.2 | 13.0 | 0.00 | 0.00 | 0.00 | 69 | 1001.3 |
| 20260505033047 | 75 | 216 | 4.3 | 11.3 | 0.00 | 0.00 | 0.00 | 68 | 1001.3 |
| 20260505031537 | 75 | 220 | 5.2 | 11.3 | 0.00 | 0.00 | 0.00 | 67 | 1001.1 |
| 20260505030037 | 76 | 221 | 6.1 | 16.5 | 0.00 | 0.00 | 0.00 | 66 | 1000.8 |
| 20260505024601 | 76 | 199 | 5.2 | 13.0 | 0.00 | 0.00 | 0.00 | 65 | 1000.6 |
| 20260505023038 | 76 | 196 | 4.3 | 10.4 | 0.00 | 0.00 | 0.00 | 64 | 1000.9 |
| 20260505021546 | 77 | 215 | 5.2 | 12.2 | 0.00 | 0.00 | 0.00 | 63 | 1000.5 |
| 20260505020035 | 77 | 216 | 5.2 | 17.4 | 0.00 | 0.00 | 0.00 | 62 | 1000.3 |
| 20260505014532 | 78 | 199 | 6.1 | 13.0 | 0.00 | 0.00 | 0.00 | 61 | 1000.4 |
| 20260505013032 | 78 | 173 | 7.0 | 13.0 | 0.00 | 0.00 | 0.00 | 60 | 1000.6 |
| 20260505011535 | 78 | 192 | 5.2 | 14.8 | 0.00 | 0.00 | 0.00 | 60 | 1000.5 |
| 20260505010027 | 79 | 217 | 4.3 | 10.4 | 0.00 | 0.00 | 0.00 | 59 | 1000.9 |